Observations for Trim Market St
| Time | AQI | Temp °C | Hum % | Pres Pa | CO μg/m³ | H₂S μg/m³ | NO μg/m³ | NO₂ μg/m³ | O₃ μg/m³ | SO₂ μg/m³ | PM1 μg/m³ | PM2.5 μg/m³ | PM10 μg/m³ |
|---|---|---|---|---|---|---|---|---|---|---|---|---|---|
| Tuesday 18 August 2026 | |||||||||||||
| 04:18 | 2 | 17.9 | 74 | 44,691 | 0.06 | 0 | 1.83 | 4.98 | 70.49 | 0 | 2.14 | 3.84 | 6.32 |
| 04:14 | 2 | 17.9 | 74 | 45,576 | 0.05 | 0 | 1.83 | 4.85 | 62.07 | 0 | 1.43 | 3.37 | 6.32 |
| 04:09 | 2 | 17.9 | 73 | 46,865 | 0.01 | 0 | 1.87 | 4.36 | 64.64 | 0 | 0.71 | 1.93 | 5.1 |
| 04:08 | 2 | 17.9 | 73 | 47,124 | 0.02 | 0 | 1.87 | 3.55 | 57.74 | 0 | 0.71 | 2.89 | 5.1 |
| 04:07 | 2 | 17.9 | 73 | 47,344 | 0.02 | 0 | 1.86 | 3.13 | 56.53 | 0 | 1.43 | 2.89 | 5.71 |
| 04:06 | 2 | 17.9 | 73 | 47,604 | 0.01 | 0 | 1.84 | 3.58 | 55.14 | 0 | 0.71 | 3.38 | 6.32 |
| 04:03 | 2 | 17.9 | 73 | 48,421 | 0.01 | 0 | 1.82 | 3.85 | 59.96 | 0 | 0.71 | 2.9 | 5.1 |
| 04:02 | 2 | 18 | 73 | 48,655 | 0 | 0 | 1.83 | 3.09 | 56.74 | 0 | 0.71 | 2.42 | 4.49 |
| 04:01 | 2 | 18 | 73 | 48,869 | 0 | 0 | 1.84 | 3.48 | 54.61 | 0 | 1.43 | 3.38 | 6.31 |
| 03:59 | 2 | 18 | 73 | 49,374 | 0 | 0 | 1.92 | 2.64 | 54.88 | 0 | 0.71 | 2.9 | 5.1 |
| 03:58 | 2 | 18 | 73 | 49,650 | 0 | 0 | 2.09 | 2.58 | 55.4 | 0 | 0.71 | 2.42 | 4.49 |
| 03:57 | 2 | 18 | 73 | 49,897 | 0.01 | 0 | 1.89 | 3.17 | 54.71 | 0 | 0.71 | 2.9 | 5.71 |
| 03:53 | 2 | 18.1 | 73 | 50,344 | 0 | 0 | 1.84 | 2.17 | 55.08 | 0 | 1.43 | 2.42 | 4.49 |
| 03:50 | 2 | 18.2 | 74 | 50,162 | 0 | 0 | 1.82 | 1.78 | 54.92 | 0 | 1.43 | 2.41 | 4.5 |
| 03:45 | 2 | 18.3 | 74 | 48,344 | 0.01 | 0 | 1.79 | 1.77 | 54.53 | 0 | 1.43 | 2.87 | 5.12 |
| 03:44 | 2 | 18.3 | 74 | 47,723 | 0 | 0 | 1.79 | 1.84 | 51.61 | 0 | 1.43 | 2.38 | 5.72 |
| 03:39 | 2 | 18.4 | 75 | 43,438 | 0.01 | 0 | 1.79 | 1.4 | 53.14 | 0 | 0.71 | 2.35 | 4.54 |
| 03:38 | 2 | 18.4 | 75 | 41,778 | 0 | 0 | 1.79 | 1.22 | 50.84 | 0 | 0.71 | 2.81 | 5.14 |
| 03:37 | 2 | 18.5 | 75 | 39,929 | 0 | 0 | 1.79 | 0.68 | 51.63 | 0 | 1.43 | 3.28 | 6.34 |
| 03:36 | 2 | 18.5 | 76 | 37,794 | 0.01 | 0 | 1.79 | 1.34 | 49.48 | 0 | 1.43 | 3.27 | 5.75 |